Tracking 17884 objects as of 4-December-2016
HD Live streaming from Space Station
objects crossing your sky now

ABS 3

Track ABS 3 now!
ABS 3 is classified as:


NORAD ID: 24901
Int'l Code: 1997-042A
Perigee: 35,763.5 km
Apogee: 35,825.3 km
Inclination: 4.5 °
Period: 1,436.1 minutes
Semi major axis: 42165 km
RCS: 10 m2 (large)
Launch date: August 19, 1997
Source: People's Republic of China (PRC)
Launch site: Xichang Space Center, China (XSC)

Most powerful telecommunications satellite in service in the Asia-Pacific region; 30 C-band, 24 Ku-band transponders; 190 high fidelity channels and 50,000 simultaneous telephone links.
Your satellite tracking list
Your tracking list is empty





NASA's NSSDC Master Catalog

Two Line Element Set (TLE):
1 24901U 97042A   16338.07320454 -.00000183  00000-0  00000+0 0  9996
2 24901   4.5304  64.3843 0007326 217.1555 262.6631  1.00269510 70609
Source of the keplerian elements: AFSPC